Hyalite Weather Station

This weather station provides temperature, wind speed, gust or max wind speed, and wind direction at 9982ft near the summit of Flanders Mountain. This data can be used with temperature and precipitation data from the Shower Falls SNOTEL site. If the data has not been updated recently you can view it directly on datagarrison.com

Elevation
9982ft
Jump to table bottom
Date Time Temperature
deg F
RH, % Wind Speed Wind Gust Wind Direction
02/21/20 01:00 20.9 12 20 29 W - 256
02/21/20 00:00 22.7 13 18 30 W - 257
02/20/20 23:00 21.6 15 14 22 W - 258
02/20/20 22:00 20.2 17 15 27 W - 258
02/20/20 21:00 21.9 18 16 25 W - 258
02/20/20 20:00 20.7 24 14 24 W - 257
02/20/20 19:00 21.1 29 15 23 W - 253
02/20/20 18:00 19.6 33 17 27 W - 253
02/20/20 17:00 22.2 33 17 24 W - 254
02/20/20 16:00 22.3 35 14 25 SW - 247
02/20/20 15:00 23.1 36 14 25 W - 248
02/20/20 14:00 22.1 36 12 20 W - 248
02/20/20 13:00 21.0 37 10 20 SW - 232
02/20/20 12:00 20.4 34 10 20 SW - 237
02/20/20 11:00 18.3 34 14 23 SW - 240
02/20/20 10:00 17.2 33 11 18 SW - 241
02/20/20 09:00 18.7 33 11 17 W - 258
02/20/20 08:00 16.3 39 10 15 SW - 244
02/20/20 07:00 14.6 39 9 14 W - 256
02/20/20 06:00 15.4 41 9 15 W - 260
02/20/20 05:00 13.9 45 11 15 SW - 240
02/20/20 04:00 13.3 46 8 13 SW - 247
02/20/20 03:00 13.0 46 9 13 W - 253
02/20/20 02:00 11.0 45 10 14 W - 263
02/20/20 01:00 10.2 44 13 17 W - 272
02/20/20 00:00 9.9 40 11 17 W - 270
02/19/20 23:00 9.8 35 11 18 W - 267
02/19/20 22:00 8.0 29 10 16 W - 250
02/19/20 21:00 8.4 32 10 12 W - 256
02/19/20 20:00 8.1 46 10 15 W - 257
02/19/20 19:00 7.2 88 9 12 W - 253
02/19/20 18:00 6.0 89 10 12 W - 253
02/19/20 17:00 6.6 89 10 16 W - 253
02/19/20 16:00 6.1 90 11 16 W - 251
02/19/20 15:00 5.8 91 10 15 W - 253
02/19/20 14:00 5.5 90 8 14 W - 250
02/19/20 13:00 6.2 90 7 12 SW - 243
02/19/20 12:00 4.6 90 5 10 SW - 240
02/19/20 11:00 5.4 89 5 7 SW - 244
02/19/20 10:00 2.2 88 6 12 W - 270
02/19/20 09:00 -2.1 87 8 11 W - 265
02/19/20 08:00 -3.0 87 8 11 W - 270
02/19/20 07:00 -4.4 87 8 12 W - 277
02/19/20 06:00 -4.0 87 8 12 W - 275
02/19/20 05:00 -4.3 87 8 13 W - 275
02/19/20 04:00 -4.1 87 8 12 W - 265
02/19/20 03:00 -3.5 87 8 11 W - 270
02/19/20 02:00 -2.7 87 7 10 W - 270
02/19/20 01:00 -2.7 87 7 10 W - 274
02/19/20 00:00 -2.3 87 6 9 W - 270